sat.trackr.live / text

‹ back to catalog

STARLINK-11656 [DTC]

NORAD 63674 · 2025-085L

PAYLOAD ACTIVE UNKNOWN

§ Identity

Operator
Country
US
Launch date
2025-04-28
Launch site
AFETR
Launch vehicle
Mass (kg)
RCS (m²)

Purposes: comms

External: N2YO · Heavens-Above · Gunter

§ Orbital elements

Epoch: 2026-09-20T18:21:45.013248Z

Period
91.67 min
Inclination
42.9975°
Eccentricity
0.0001772
Mean motion
15.70907595 rev/d
Perigee alt
355.1 km
Apogee alt
357.5 km
Semi-major
6,734.4 km
B*
1.1302e-3
RAAN
182.4293°
Arg perigee
205.3718°
Mean anomaly
154.7063°
Rev number
8,092

§ Raw data

STARLINK-11656 [DTC]1 63674U 25085L   26263.76510432  .00147598  00000+0  11302-2 0  99952 63674  42.9975 182.4293 0001772 205.3718 154.7063 15.70907595 80929

JSON: /api/v1/satellites/63674 · /tle

For live sub-satellite position, see the globe view (requires WebGL).

§ Visibility from observer

Set your observer location to see the next 7 days of passes ≥ 10°. The values pass through the URL so the page stays shareable.

No JS? Fill the form by hand. The geolocation button needs JavaScript.